Fort Polk, LA

4:12 PM CDT on July 26, 2017 (GMT -0500)
Polk Army Air Field

Weather History for KPOE - February, 2014

Change the Weather History Date:

Thursday, February 20, 2014

  Actual Average Record
Temperature  
Mean Temperature 68 °F -  
Max Temperature 78 °F 62 °F 78 °F (2014)
Min Temperature 55 °F 43 °F 30 °F (2006)
Cooling Degree Days 2    
Growing Degree Days 18 (Base 50)    
Moisture  
Dew Point 61 °F    
Average Humidity 79    
Maximum Humidity 100    
Minimum Humidity 49    
Precipitation  
Precipitation 0.56 in - - ()
Sea Level Pressure  
Sea Level Pressure 29.85 in    
Wind  
Wind Speed 13 mph (SSW)    
Max Wind Speed 21 mph    
Max Gust Speed 30 mph    
Visibility 9 miles    
Events Rain , Thunderstorm    
Averages and records for this station are not official NWS values.
T = Trace of Precipitation, MM = Missing Value Source: NWS Daily Summary

Daily Weather History Graph

Daily Weather History Graph

Search for Another Location

Airport or City:

Trip Planner

Search our weather history database for the weather conditions in past years. The results will help you decide how hot, cold, wet, or windy it might be!

Date:

Astronomy

Feb. 20, 2014 Rise Set
Actual Time 6:48 AM CST 6:04 PM CST
Civil Twilight 6:24 AM CST 6:28 PM CST
Nautical Twilight 5:56 AM CST 6:57 PM CST
Astronomical Twilight 5:28 AM CST 7:25 PM CST
Moon 11:33 PM CST (2/20) 9:55 AM CST (2/20)
Length of Visible Light 12h 04m
Length of Day
11h 15m
Waning Gibbous, 70% of the Moon is Illuminated
Feb 20
Waning Gibbous
Feb 22
Last Quarter
Mar 1
New
Mar 8
First Quarter
Mar 16
Full

Hourly Weather History & Observations

Time (CST) Temp. Dew Point Humidity Pressure Visibility Wind Dir Wind Speed Gust Speed Precip Events Conditions
12:20 AM 66.2 °F 62.6 °F 88% 29.85 in 10.0 mi South 13.8 mph 20.7 mph N/A   Overcast
12:37 AM 66.2 °F 62.6 °F 88% 29.85 in 10.0 mi South 11.5 mph 21.9 mph N/A   Overcast
12:55 AM 66.9 °F 63.0 °F 87% 29.85 in 10.0 mi South 13.8 mph 24.2 mph N/A   Overcast
1:55 AM 66.9 °F 63.0 °F 87% 29.85 in 10.0 mi South 10.4 mph - N/A   Overcast
2:10 AM 66.2 °F 62.6 °F 88% 29.84 in 10.0 mi South 9.2 mph - N/A   Overcast
2:55 AM 66.9 °F 63.0 °F 87% 29.83 in 10.0 mi South 15.0 mph 24.2 mph N/A   Overcast
3:10 AM 66.2 °F 62.6 °F 88% 29.82 in 10.0 mi South 12.7 mph 21.9 mph N/A   Overcast
3:35 AM 68.0 °F 62.6 °F 83% 29.82 in 10.0 mi South 13.8 mph 23.0 mph N/A   Overcast
3:55 AM 68.0 °F 63.0 °F 84% 29.82 in 10.0 mi South 12.7 mph 25.3 mph N/A   Overcast
4:55 AM 68.0 °F 64.0 °F 87% 29.82 in 10.0 mi SSW 13.8 mph - N/A   Overcast
5:55 AM 68.0 °F 64.0 °F 87% 29.83 in 10.0 mi South 12.7 mph - N/A   Overcast
6:26 AM 69.8 °F 64.4 °F 83% 29.83 in 8.0 mi South 15.0 mph 23.0 mph N/A   Overcast
6:37 AM 69.8 °F 64.4 °F 83% 29.83 in 8.0 mi South 13.8 mph 23.0 mph N/A   Overcast
6:55 AM 69.1 °F 64.9 °F 87% 29.84 in 9.0 mi South 16.1 mph 25.3 mph N/A   Overcast
7:55 AM 69.1 °F 64.0 °F 84% 29.85 in 10.0 mi South 15.0 mph 23.0 mph N/A   Overcast
8:55 AM 70.0 °F 63.0 °F 78% 29.85 in 10.0 mi South 11.5 mph 24.2 mph N/A   Mostly Cloudy
9:55 AM 72.0 °F 62.1 °F 71% 29.88 in 10.0 mi SSW 12.7 mph 21.9 mph N/A   Overcast
10:25 AM 71.6 °F 60.8 °F 69% 29.88 in 10.0 mi SSW 11.5 mph 24.2 mph N/A   Overcast
10:55 AM 73.0 °F 62.1 °F 68% 29.89 in 10.0 mi SSW 9.2 mph - N/A   Overcast
11:25 AM 73.4 °F 60.8 °F 65% 29.88 in 10.0 mi South 20.7 mph 29.9 mph N/A   Overcast
11:55 AM 73.9 °F 61.0 °F 64% 29.88 in 10.0 mi South 16.1 mph 23.0 mph N/A   Overcast
12:55 PM 73.9 °F 62.1 °F 66% 29.87 in 10.0 mi SSW 11.5 mph - N/A   Overcast
1:23 PM 75.2 °F 62.6 °F 65% 29.83 in 10.0 mi SSW 12.7 mph 20.7 mph N/A   Mostly Cloudy
1:55 PM 77.0 °F 60.1 °F 56% 29.82 in 10.0 mi SSW 16.1 mph 23.0 mph N/A   Clear
2:55 PM 78.1 °F 59.0 °F 52% 29.79 in 10.0 mi South 20.7 mph 29.9 mph N/A   Clear
3:55 PM 75.0 °F 61.0 °F 62% 29.82 in 10.0 mi SW 9.2 mph - N/A   Overcast
4:55 PM 73.0 °F 63.0 °F 71% 29.80 in 10.0 mi SSW 9.2 mph - N/A   Partly Cloudy
5:55 PM 73.0 °F 64.0 °F 73% 29.80 in 10.0 mi SSW 6.9 mph - N/A   Scattered Clouds
6:25 PM 71.6 °F 64.4 °F 78% 29.80 in 10.0 mi SW 3.5 mph - N/A Thunderstorm Thunderstorm
6:42 PM 71.6 °F 64.4 °F 78% 29.81 in 10.0 mi West 12.7 mph - 0.00 in Rain , Thunderstorm Light Thunderstorms and Rain
7:01 PM 66.2 °F 64.4 °F 94% 29.83 in - West 6.9 mph 16.1 mph 0.37 in Rain , Thunderstorm Heavy Thunderstorms and Rain
7:08 PM 64.4 °F 64.4 °F 100% 29.82 in 1.0 mi Variable 3.5 mph - 0.47 in Rain , Thunderstorm Heavy Thunderstorms and Rain
7:13 PM 64.4 °F 64.4 °F 100% 29.81 in 2.0 mi SE 3.5 mph - 0.51 in Rain , Thunderstorm Heavy Thunderstorms and Rain
7:22 PM 64.4 °F 64.4 °F 100% 29.81 in 5.0 mi Calm Calm - 0.54 in Rain , Thunderstorm Light Thunderstorms and Rain
7:44 PM 64.4 °F 64.4 °F 100% 29.80 in 8.0 mi NW 18.4 mph 24.2 mph 0.56 in Rain , Thunderstorm Light Thunderstorms and Rain
7:55 PM 64.9 °F 64.0 °F 97% 29.82 in 10.0 mi NW 15.0 mph - 0.56 in Rain , Thunderstorm Light Thunderstorms and Rain
8:10 PM 64.4 °F 62.6 °F 94% 29.84 in 10.0 mi WNW 10.4 mph - 0.00 in   Mostly Cloudy
8:40 PM 64.4 °F 62.6 °F 94% 29.87 in 10.0 mi NW 15.0 mph - 0.00 in   Scattered Clouds
8:55 PM 64.0 °F 60.1 °F 87% 29.90 in 10.0 mi NW 10.4 mph 19.6 mph 0.00 in   Scattered Clouds
9:55 PM 61.0 °F 42.1 °F 50% 29.96 in 10.0 mi NNW 15.0 mph 24.2 mph N/A   Mostly Cloudy
10:55 PM 57.9 °F 39.0 °F 49% 30.02 in 10.0 mi North 16.1 mph 25.3 mph N/A   Clear
11:55 PM 55.0 °F 37.0 °F 51% 30.06 in 10.0 mi North 16.1 mph 29.9 mph N/A   Clear